Sturgeon Bay, WI

11:23 AM CDT on April 19, 2018 (GMT -0500)
Door County Cherryland

Weather History for KSUE - November, 2014

Change the Weather History Date:

Wednesday, November 19, 2014

  Actual Average Record
Temperature  
Mean Temperature 18 °F -  
Max Temperature 21 °F 41 °F 61 °F (1953)
Min Temperature 15 °F 29 °F 10 °F (1986)
Degree Days  
Heating Degree Days 47    
Moisture  
Dew Point 10 °F    
Average Humidity 68    
Maximum Humidity 86    
Minimum Humidity 53    
Precipitation  
Precipitation 0.00 in - - ()
Sea Level Pressure  
Sea Level Pressure 29.73 in    
Wind  
Wind Speed 12 mph (WSW)    
Max Wind Speed 23 mph    
Max Gust Speed 32 mph    
Visibility 7 miles    
Events      
Averages and records for this station are not official NWS values.
T = Trace of Precipitation, MM = Missing Value Source: NWS Daily Summary

Daily Weather History Graph

Daily Weather History Graph

Search for Another Location

Airport or City:

Astronomy

Nov. 19, 2014 Rise Set
Actual Time 6:52 AM CST 4:17 PM CST
Civil Twilight 6:20 AM CST 4:49 PM CST
Nautical Twilight 5:44 AM CST 5:25 PM CST
Astronomical Twilight 5:09 AM CST 6:00 PM CST
Moon 3:39 AM CST 2:51 PM CST
Length of Visible Light 10h 29m
Length of Day
9h 25m
Waning Crescent, 8% of the Moon is Illuminated
Nov 19
Waning Crescent
Nov 22
New
Nov 29
First Quarter
Dec 6
Full
Dec 14
Last Quarter

Hourly Weather History & Observations

Time (CST) Temp. Windchill Dew Point Humidity Pressure Visibility Wind Dir Wind Speed Gust Speed Precip Events Conditions
12:15 AM 15.8 °F 2.1 °F 1.4 °F 53% 29.92 in 10.0 mi WSW 12.7 mph - N/A   Overcast
12:35 AM 15.8 °F 2.1 °F 1.4 °F 53% 29.92 in 10.0 mi WSW 12.7 mph 18.4 mph N/A   Overcast
12:55 AM 15.8 °F 3.4 °F 1.4 °F 53% 29.91 in 10.0 mi WSW 10.4 mph - N/A   Overcast
1:15 AM 15.8 °F 4.2 °F 3.2 °F 58% 29.90 in 10.0 mi WSW 9.2 mph - N/A   Overcast
1:35 AM 15.8 °F 4.2 °F 3.2 °F 58% 29.89 in 10.0 mi SW 9.2 mph - N/A   Overcast
1:55 AM 15.8 °F 3.4 °F 3.2 °F 58% 29.88 in 10.0 mi SSW 10.4 mph - N/A   Overcast
2:15 AM 15.8 °F 4.2 °F 3.2 °F 58% 29.88 in 10.0 mi SSW 9.2 mph - N/A   Overcast
2:35 AM 15.8 °F 5.1 °F 3.2 °F 58% 29.87 in 10.0 mi SSW 8.1 mph - N/A   Overcast
2:55 AM 15.8 °F 4.2 °F 5.0 °F 62% 29.86 in 10.0 mi South 9.2 mph - N/A   Overcast
3:15 AM 15.8 °F 5.1 °F 3.2 °F 58% 29.85 in 10.0 mi South 8.1 mph - N/A   Overcast
3:35 AM 15.8 °F 5.1 °F 5.0 °F 62% 29.84 in 10.0 mi South 8.1 mph - N/A   Overcast
3:55 AM 15.8 °F 3.4 °F 5.0 °F 62% 29.83 in 10.0 mi South 10.4 mph - N/A   Overcast
4:15 AM 15.8 °F 5.1 °F 6.8 °F 68% 29.82 in 6.0 mi South 8.1 mph - N/A   Overcast
4:35 AM 15.8 °F 5.1 °F 6.8 °F 68% 29.81 in 10.0 mi South 8.1 mph - N/A   Overcast
4:55 AM 15.8 °F 4.2 °F 6.8 °F 68% 29.81 in 6.0 mi South 9.2 mph - N/A   Overcast
5:15 AM 15.8 °F 6.1 °F 8.6 °F 73% 29.79 in 4.0 mi South 6.9 mph - N/A   Overcast
5:35 AM 15.8 °F 5.1 °F 8.6 °F 73% 29.78 in 3.0 mi South 8.1 mph - N/A   Overcast
5:55 AM 15.8 °F 6.1 °F 10.4 °F 79% 29.77 in 2.5 mi South 6.9 mph - N/A   Overcast
6:15 AM 15.8 °F 4.2 °F 10.4 °F 79% 29.77 in 2.0 mi South 9.2 mph - N/A   Overcast
6:35 AM 17.6 °F 8.2 °F 12.2 °F 79% 29.76 in 2.0 mi South 6.9 mph - N/A   Overcast
6:55 AM 17.6 °F 7.3 °F 12.2 °F 79% 29.74 in 2.5 mi South 8.1 mph - N/A   Overcast
7:15 AM 17.6 °F 8.2 °F 12.2 °F 79% 29.73 in 2.0 mi South 6.9 mph - N/A   Overcast
7:35 AM 19.4 °F 9.5 °F 14.0 °F 80% 29.72 in 2.0 mi South 8.1 mph - N/A   Overcast
7:55 AM 19.4 °F 8.6 °F 14.0 °F 80% 29.71 in 2.0 mi SSW 9.2 mph - N/A   Overcast
8:15 AM 19.4 °F 8.6 °F 14.0 °F 80% 29.70 in 3.0 mi SW 9.2 mph - N/A   Overcast
8:35 AM 19.4 °F 7.2 °F 14.0 °F 80% 29.70 in 2.5 mi SW 11.5 mph - N/A   Overcast
8:55 AM 19.4 °F 7.9 °F 15.8 °F 86% 29.70 in 2.0 mi WSW 10.4 mph - N/A   Overcast
9:15 AM 19.4 °F 8.6 °F 14.0 °F 80% 29.68 in 2.5 mi WSW 9.2 mph - N/A   Overcast
9:35 AM 19.4 °F 8.6 °F 14.0 °F 80% 29.67 in 5.0 mi WSW 9.2 mph - N/A   Overcast
9:55 AM 19.4 °F 7.9 °F 15.8 °F 86% 29.66 in 3.0 mi WSW 10.4 mph - N/A   Overcast
10:15 AM 21.2 °F 8.9 °F 15.8 °F 80% 29.65 in 4.0 mi West 12.7 mph - N/A   Mostly Cloudy
10:35 AM 21.2 °F 8.3 °F 14.0 °F 74% 29.64 in 9.0 mi West 13.8 mph 18.4 mph N/A   Overcast
10:55 AM 21.2 °F 8.9 °F 14.0 °F 74% 29.63 in 5.0 mi West 12.7 mph 18.4 mph N/A   Overcast
11:15 AM 21.2 °F 10.1 °F 14.0 °F 74% 29.62 in 6.0 mi West 10.4 mph - N/A   Overcast
11:35 AM 21.2 °F 9.5 °F 14.0 °F 74% 29.62 in 6.0 mi West 11.5 mph 16.1 mph N/A   Overcast
11:55 AM 19.4 °F 7.2 °F 14.0 °F 80% 29.62 in 4.0 mi West 11.5 mph 17.3 mph N/A   Overcast
12:15 PM 19.4 °F 6.6 °F 14.0 °F 80% 29.61 in 3.0 mi West 12.7 mph - N/A   Overcast
12:35 PM 19.4 °F 6.6 °F 14.0 °F 80% 29.61 in 3.0 mi West 12.7 mph - N/A   Overcast
12:55 PM 19.4 °F 6.6 °F 12.2 °F 74% 29.61 in 4.0 mi WNW 12.7 mph - N/A   Overcast
1:15 PM 19.4 °F 6.6 °F 14.0 °F 80% 29.61 in 4.0 mi West 12.7 mph 17.3 mph N/A   Overcast
1:35 PM 19.4 °F 6.0 °F 12.2 °F 74% 29.62 in 5.0 mi West 13.8 mph - N/A   Overcast
1:55 PM 21.2 °F 7.3 °F 12.2 °F 68% 29.62 in 8.0 mi West 16.1 mph 23.0 mph N/A   Overcast
2:15 PM 21.2 °F 9.5 °F 12.2 °F 68% 29.62 in 10.0 mi West 11.5 mph 18.4 mph N/A   Overcast
2:35 PM 21.2 °F 8.3 °F 10.4 °F 63% 29.63 in 9.0 mi WNW 13.8 mph 23.0 mph N/A   Overcast
2:55 PM 21.2 °F 7.8 °F 10.4 °F 63% 29.63 in 10.0 mi West 15.0 mph 20.7 mph N/A   Overcast
3:15 PM 21.2 °F 6.0 °F 10.4 °F 63% 29.64 in 10.0 mi West 19.6 mph 25.3 mph N/A   Overcast
3:35 PM 21.2 °F 8.3 °F 8.6 °F 58% 29.65 in 8.0 mi WNW 13.8 mph 25.3 mph N/A   Overcast
3:55 PM 21.2 °F 6.8 °F 8.6 °F 58% 29.65 in 10.0 mi WNW 17.3 mph 26.5 mph N/A   Overcast
4:15 PM 21.2 °F 5.2 °F 8.6 °F 58% 29.66 in 5.0 mi WNW 21.9 mph 31.1 mph N/A   Overcast
4:35 PM 21.2 °F 4.9 °F 8.6 °F 58% 29.67 in 10.0 mi WNW 23.0 mph 28.8 mph N/A   Overcast
4:55 PM 21.2 °F 6.0 °F 8.6 °F 58% 29.68 in 10.0 mi WNW 19.6 mph 25.3 mph N/A   Overcast
5:15 PM 21.2 °F 6.4 °F 8.6 °F 58% 29.69 in 10.0 mi West 18.4 mph 25.3 mph N/A   Overcast
5:35 PM 21.2 °F 6.8 °F 8.6 °F 58% 29.70 in 10.0 mi West 17.3 mph 21.9 mph N/A   Overcast
5:55 PM 21.2 °F 7.8 °F 8.6 °F 58% 29.71 in 10.0 mi West 15.0 mph 25.3 mph N/A   Overcast
6:15 PM 21.2 °F 7.3 °F 8.6 °F 58% 29.72 in 10.0 mi West 16.1 mph 27.6 mph N/A   Mostly Cloudy
6:35 PM 21.2 °F 6.4 °F 8.6 °F 58% 29.72 in 10.0 mi West 18.4 mph 26.5 mph N/A   Overcast
6:55 PM 21.2 °F 6.0 °F 8.6 °F 58% 29.73 in 10.0 mi West 19.6 mph 25.3 mph N/A   Overcast
7:15 PM 19.4 °F 3.6 °F 8.6 °F 63% 29.73 in 10.0 mi West 19.6 mph 26.5 mph N/A   Mostly Cloudy
7:55 PM 19.4 °F 4.1 °F 10.4 °F 68% 29.74 in 10.0 mi West 18.4 mph 26.5 mph N/A   Partly Cloudy
8:15 PM 19.4 °F 6.0 °F 8.6 °F 63% 29.75 in 10.0 mi West 13.8 mph 26.5 mph N/A   Partly Cloudy
8:35 PM 19.4 °F 3.2 °F 10.4 °F 68% 29.74 in 10.0 mi West 20.7 mph 26.5 mph N/A   Clear
8:55 PM 19.4 °F 3.6 °F 10.4 °F 68% 29.75 in 10.0 mi West 19.6 mph 26.5 mph N/A   Clear
9:15 PM 19.4 °F 4.1 °F 10.4 °F 68% 29.75 in 10.0 mi West 18.4 mph 32.2 mph N/A   Clear
9:35 PM 19.4 °F 4.5 °F 10.4 °F 68% 29.76 in 10.0 mi West 17.3 mph 21.9 mph N/A   Scattered Clouds
9:55 PM 19.4 °F 4.5 °F 10.4 °F 68% 29.76 in 10.0 mi West 17.3 mph 23.0 mph N/A   Scattered Clouds
10:15 PM 19.4 °F 3.2 °F 10.4 °F 68% 29.76 in 10.0 mi West 20.7 mph 26.5 mph N/A   Mostly Cloudy
10:35 PM 19.4 °F 3.6 °F 8.6 °F 63% 29.76 in 10.0 mi West 19.6 mph 26.5 mph N/A   Scattered Clouds
10:55 PM 19.4 °F 5.5 °F 10.4 °F 68% 29.76 in 10.0 mi West 15.0 mph 21.9 mph N/A   Partly Cloudy
11:15 PM 19.4 °F 4.1 °F 8.6 °F 63% 29.77 in 10.0 mi West 18.4 mph 23.0 mph N/A   Partly Cloudy
11:35 PM 19.4 °F 5.5 °F 8.6 °F 63% 29.77 in 10.0 mi West 15.0 mph - N/A   Partly Cloudy
11:55 PM 19.4 °F 6.6 °F 8.6 °F 63% 29.77 in 10.0 mi West 12.7 mph 24.2 mph N/A   Partly Cloudy